Regional Weather Roundup
Issued by NWS

Home | Current Version | Previous Version | Text Only | Print | Product List | Glossary On
Versions: 1 2 3 4 5 6 7 8 9 10 11 12 13 14 15 16 17 18 19 20 21 22 23 24 25 26 27 28 29 30 31 32 33 34 35 36 37 38 39 40 41 42 43 44 45 46 47 48 49
000
ASUS42 KKEY 261110
RWRKEY

FLORIDA REGIONAL WEATHER ROUNDUP FOR THE FLORIDA KEYS
NATIONAL WEATHER SERVICE KEY WEST FLORIDA
700 AM EDT TUE MAY 26 2015

...SOUTH FLORIDA AND THE KEYS...

CITY           SKY/WX    TMP DP  RH WIND       PRES   REMARKS
FORT MYERS     PTCLDY    75  73  93 E6        30.15R
SW REGIONAL AP PTCLDY    74  72  93 E6        30.16R
NAPLES         PTCLDY    75  73  93 NE6       30.15R
MIAMI          MOCLDY    80  71  74 E13       30.15R
WEST KENDALL   LGT RAIN  79  73  82 E14G21    30.14R
HOMESTEAD      CLEAR     80  71  73 E13G21    30.14R
MARATHON       LGT RAIN  81  75  82 E12G17    30.11R
BOCA CHICA NAS MOCLDY    81  73  76 E14       30.11R
KEY WEST INTL  PTCLDY    81  74  79 E17       30.11R

...INTERNATIONAL WEATHER...

CITY           SKY/WX    TMP DP  RH WIND       PRES   REMARKS
NASSAU BAHAMAS LGT RAIN  79  70  73 E8        30.16R
CANCUN MEXICO  PTCLDY    81  73  78 E10       30.00R
COZUMEL MEXICO PTCLDY    75  72  88 CALM      30.00R

ADJACENT COASTAL WATERS...

STATION/POSITION TIME  SKY/WX   TEMP    WIND        PRES    WAVE
                                AIR SEA DIR/SP/G            HT/PER
                 (UTC)          (F)     (DEG/KT/KT) (MB)    (FT/S)
PULASKI SHOAL LI 1000            82     130/ 16/ 18 1018.7R
SAND KEY         1050            82     110/ 19/ 22 1019.3R
SOMBRERO KEY     1100            81     100/ 20/ 21 1020.2R
LONG KEY         1000            81 83  120/ 15/ 17 1020.2R
MOLASSES REEF    1100            80 83  110/ 17/ 18 1020.2R
FOWEY ROCKS      NOT AVBL

$$


USA.gov is the U.S. government's official web portal to all federal, state and local government web resources and services.